owner,sensor,date,latitude,longitude,vertical_datum,sea_water_practical_salinity,qcFlag 
DISL,ioos:station:DISL:BSCA:1,2016-07-01T00:00:00Z,30.3288,-87.8293,1.811,13.25,1111122 
DISL,ioos:station:DISL:BSCA:1,2016-07-01T00:30:00Z,30.3288,-87.8293,1.828,13.25,1111122 
DISL,ioos:station:DISL:BSCA:1,2016-07-01T01:00:00Z,30.3288,-87.8293,1.829,13.27,1111122 
DISL,ioos:station:DISL:BSCA:1,2016-07-01T01:30:00Z,30.3288,-87.8293,1.865,13.6,1111122 
DISL,ioos:station:DISL:BSCA:1,2016-07-01T02:00:00Z,30.3288,-87.8293,1.88,13.5,1111122 
DISL,ioos:station:DISL:BSCA:1,2016-07-01T02:30:00Z,30.3288,-87.8293,1.891,13.9,1111122 
DISL,ioos:station:DISL:BSCA:1,2016-07-01T03:00:00Z,30.3288,-87.8293,1.913,13.9,1111122 
DISL,ioos:station:DISL:BSCA:1,2016-07-01T03:30:00Z,30.3288,-87.8293,1.924,13.89,1111122 
DISL,ioos:station:DISL:BSCA:1,2016-07-01T04:00:00Z,30.3288,-87.8293,1.959,13.87,1111122 
DISL,ioos:station:DISL:BSCA:1,2016-07-01T04:30:00Z,30.3288,-87.8293,1.982,13.82,1111122 
DISL,ioos:station:DISL:BSCA:1,2016-07-01T05:00:00Z,30.3288,-87.8293,2.01,13.91,1111122 
DISL,ioos:station:DISL:BSCA:1,2016-07-01T05:30:00Z,30.3288,-87.8293,2.025,13.98,1111122 
DISL,ioos:station:DISL:BSCA:1,2016-07-01T06:00:00Z,30.3288,-87.8293,2.048,13.97,1111122 
DISL,ioos:station:DISL:BSCA:1,2016-07-01T06:30:00Z,30.3288,-87.8293,2.053,13.99,1111122 
DISL,ioos:station:DISL:BSCA:1,2016-07-01T07:00:00Z,30.3288,-87.8293,2.085,14.02,1111122 
DISL,ioos:station:DISL:BSCA:1,2016-07-01T07:30:00Z,30.3288,-87.8293,2.092,14.09,1111122 
DISL,ioos:station:DISL:BSCA:1,2016-07-01T08:00:00Z,30.3288,-87.8293,2.139,14.02,1111122 
DISL,ioos:station:DISL:BSCA:1,2016-07-01T08:30:00Z,30.3288,-87.8293,2.165,14.15,1111122 
DISL,ioos:station:DISL:BSCA:1,2016-07-01T09:00:00Z,30.3288,-87.8293,2.204,14.16,1111122 
DISL,ioos:station:DISL:BSCA:1,2016-07-01T09:30:00Z,30.3288,-87.8293,2.228,14.15,1111122 
DISL,ioos:station:DISL:BSCA:1,2016-07-01T10:00:00Z,30.3288,-87.8293,2.258,14.06,1111122 
DISL,ioos:station:DISL:BSCA:1,2016-07-01T10:30:00Z,30.3288,-87.8293,2.29,14.17,1111122 
DISL,ioos:station:DISL:BSCA:1,2016-07-01T11:00:00Z,30.3288,-87.8293,2.285,14.19,1111122 
DISL,ioos:station:DISL:BSCA:1,2016-07-01T11:30:00Z,30.3288,-87.8293,2.305,14.24,1111122 
DISL,ioos:station:DISL:BSCA:1,2016-07-01T12:00:00Z,30.3288,-87.8293,2.299,14.3,1111122 
DISL,ioos:station:DISL:BSCA:1,2016-07-01T12:30:00Z,30.3288,-87.8293,2.295,14.4,1111122 
DISL,ioos:station:DISL:BSCA:1,2016-07-01T13:00:00Z,30.3288,-87.8293,2.281,14.43,1111122 
DISL,ioos:station:DISL:BSCA:1,2016-07-01T13:30:00Z,30.3288,-87.8293,2.287,14.44,1111122 
DISL,ioos:station:DISL:BSCA:1,2016-07-01T14:00:00Z,30.3288,-87.8293,2.266,14.44,1111122 
DISL,ioos:station:DISL:BSCA:1,2016-07-01T14:30:00Z,30.3288,-87.8293,2.267,14.44,1111122 
DISL,ioos:station:DISL:BSCA:1,2016-07-01T15:00:00Z,30.3288,-87.8293,2.255,14.46,1111122 
DISL,ioos:station:DISL:BSCA:1,2016-07-01T15:30:00Z,30.3288,-87.8293,2.234,14.45,1111122 
DISL,ioos:station:DISL:BSCA:1,2016-07-01T16:00:00Z,30.3288,-87.8293,2.215,14.48,1111122 
DISL,ioos:station:DISL:BSCA:1,2016-07-01T16:30:00Z,30.3288,-87.8293,2.187,14.48,1111122 
DISL,ioos:station:DISL:BSCA:1,2016-07-01T17:00:00Z,30.3288,-87.8293,2.145,14.41,1111122 
DISL,ioos:station:DISL:BSCA:1,2016-07-01T17:30:00Z,30.3288,-87.8293,2.103,14.45,1111122 
DISL,ioos:station:DISL:BSCA:1,2016-07-01T18:00:00Z,30.3288,-87.8293,2.057,14.48,1111122 
DISL,ioos:station:DISL:BSCA:1,2016-07-01T18:30:00Z,30.3288,-87.8293,2.011,14.48,1111122 
DISL,ioos:station:DISL:BSCA:1,2016-07-01T19:00:00Z,30.3288,-87.8293,1.972,14.46,1111122 
DISL,ioos:station:DISL:BSCA:1,2016-07-01T19:30:00Z,30.3288,-87.8293,1.932,14.44,1111122 
DISL,ioos:station:DISL:BSCA:1,2016-07-01T20:00:00Z,30.3288,-87.8293,1.9,14.43,1111122 
DISL,ioos:station:DISL:BSCA:1,2016-07-01T20:30:00Z,30.3288,-87.8293,1.867,14.4,1111122 
DISL,ioos:station:DISL:BSCA:1,2016-07-01T21:00:00Z,30.3288,-87.8293,1.844,14.41,1111122 
DISL,ioos:station:DISL:BSCA:1,2016-07-01T21:30:00Z,30.3288,-87.8293,1.816,14.34,1111122 
DISL,ioos:station:DISL:BSCA:1,2016-07-01T22:00:00Z,30.3288,-87.8293,1.78,14.24,1111122 
DISL,ioos:station:DISL:BSCA:1,2016-07-01T22:30:00Z,30.3288,-87.8293,1.761,14.13,1111122 
DISL,ioos:station:DISL:BSCA:1,2016-07-01T23:00:00Z,30.3288,-87.8293,1.742,14.13,1111122 
DISL,ioos:station:DISL:BSCA:1,2016-07-01T23:30:00Z,30.3288,-87.8293,1.72,13.85,1111122 
DISL,ioos:station:DISL:BSCA:1,2016-07-02T00:00:00Z,30.3288,-87.8293,1.701,13.92,1111122 
DISL,ioos:station:DISL:BSCA:1,2016-07-02T00:30:00Z,30.3288,-87.8293,1.686,14.01,1111122 
DISL,ioos:station:DISL:BSCA:1,2016-07-02T01:00:00Z,30.3288,-87.8293,1.684,13.94,1111122 
DISL,ioos:station:DISL:BSCA:1,2016-07-02T01:30:00Z,30.3288,-87.8293,1.689,13.78,1111122 
DISL,ioos:station:DISL:BSCA:1,2016-07-02T02:00:00Z,30.3288,-87.8293,1.708,13.71,1111122 
DISL,ioos:station:DISL:BSCA:1,2016-07-02T02:30:00Z,30.3288,-87.8293,1.73,13.77,1111122 
DISL,ioos:station:DISL:BSCA:1,2016-07-02T03:00:00Z,30.3288,-87.8293,1.766,13.76,1111122 
DISL,ioos:station:DISL:BSCA:1,2016-07-02T03:30:00Z,30.3288,-87.8293,1.792,13.75,1111122 
DISL,ioos:station:DISL:BSCA:1,2016-07-02T04:00:00Z,30.3288,-87.8293,1.822,13.74,1111122 
DISL,ioos:station:DISL:BSCA:1,2016-07-02T04:30:00Z,30.3288,-87.8293,1.852,13.76,1111122 
DISL,ioos:station:DISL:BSCA:1,2016-07-02T05:00:00Z,30.3288,-87.8293,1.879,13.76,1111122 
DISL,ioos:station:DISL:BSCA:1,2016-07-02T05:30:00Z,30.3288,-87.8293,1.906,13.75,1111122 
DISL,ioos:station:DISL:BSCA:1,2016-07-02T06:00:00Z,30.3288,-87.8293,1.929,13.75,1111122 
DISL,ioos:station:DISL:BSCA:1,2016-07-02T06:30:00Z,30.3288,-87.8293,1.955,13.68,1111122 
DISL,ioos:station:DISL:BSCA:1,2016-07-02T07:00:00Z,30.3288,-87.8293,1.985,13.16,1111122 
DISL,ioos:station:DISL:BSCA:1,2016-07-02T07:30:00Z,30.3288,-87.8293,2.012,13.6,1111122 
DISL,ioos:station:DISL:BSCA:1,2016-07-02T08:00:00Z,30.3288,-87.8293,2.038,13.35,1111122 
DISL,ioos:station:DISL:BSCA:1,2016-07-02T08:30:00Z,30.3288,-87.8293,2.07,13.23,1111122 
DISL,ioos:station:DISL:BSCA:1,2016-07-02T09:00:00Z,30.3288,-87.8293,2.11,13.77,1111122 
DISL,ioos:station:DISL:BSCA:1,2016-07-02T09:30:00Z,30.3288,-87.8293,2.132,13.22,1111122 
DISL,ioos:station:DISL:BSCA:1,2016-07-02T10:00:00Z,30.3288,-87.8293,2.165,13.16,1111122 
DISL,ioos:station:DISL:BSCA:1,2016-07-02T10:30:00Z,30.3288,-87.8293,2.205,13.59,1111122 
DISL,ioos:station:DISL:BSCA:1,2016-07-02T11:00:00Z,30.3288,-87.8293,2.226,13.8,1111122 
DISL,ioos:station:DISL:BSCA:1,2016-07-02T11:30:00Z,30.3288,-87.8293,2.26,13.87,1111122 
DISL,ioos:station:DISL:BSCA:1,2016-07-02T12:00:00Z,30.3288,-87.8293,2.283,13.88,1111122 
DISL,ioos:station:DISL:BSCA:1,2016-07-02T12:30:00Z,30.3288,-87.8293,2.302,13.88,1111122 
DISL,ioos:station:DISL:BSCA:1,2016-07-02T13:00:00Z,30.3288,-87.8293,2.318,13.83,1111122 
DISL,ioos:station:DISL:BSCA:1,2016-07-02T13:30:00Z,30.3288,-87.8293,2.326,13.85,1111122 
DISL,ioos:station:DISL:BSCA:1,2016-07-02T14:00:00Z,30.3288,-87.8293,2.32,13.88,1111122 
DISL,ioos:station:DISL:BSCA:1,2016-07-02T14:30:00Z,30.3288,-87.8293,2.3,13.77,1111122 
DISL,ioos:station:DISL:BSCA:1,2016-07-02T15:00:00Z,30.3288,-87.8293,2.289,13.72,1111122 
DISL,ioos:station:DISL:BSCA:1,2016-07-02T15:30:00Z,30.3288,-87.8293,2.269,13.66,1111122 
DISL,ioos:station:DISL:BSCA:1,2016-07-02T16:00:00Z,30.3288,-87.8293,2.246,13.63,1111122 
DISL,ioos:station:DISL:BSCA:1,2016-07-02T16:30:00Z,30.3288,-87.8293,2.226,13.63,1111122 
DISL,ioos:station:DISL:BSCA:1,2016-07-02T17:00:00Z,30.3288,-87.8293,2.199,13.61,1111122 
DISL,ioos:station:DISL:BSCA:1,2016-07-02T17:30:00Z,30.3288,-87.8293,2.167,13.58,1111122 
DISL,ioos:station:DISL:BSCA:1,2016-07-02T18:00:00Z,30.3288,-87.8293,2.129,13.57,1111122 
DISL,ioos:station:DISL:BSCA:1,2016-07-02T18:30:00Z,30.3288,-87.8293,2.09,13.57,1111122 
DISL,ioos:station:DISL:BSCA:1,2016-07-02T19:00:00Z,30.3288,-87.8293,2.053,13.56,1111122 
DISL,ioos:station:DISL:BSCA:1,2016-07-02T19:30:00Z,30.3288,-87.8293,2.019,13.58,1111122 
DISL,ioos:station:DISL:BSCA:1,2016-07-02T20:00:00Z,30.3288,-87.8293,1.978,13.63,1111122 
DISL,ioos:station:DISL:BSCA:1,2016-07-02T20:30:00Z,30.3288,-87.8293,1.935,13.61,1111122 
DISL,ioos:station:DISL:BSCA:1,2016-07-02T21:00:00Z,30.3288,-87.8293,1.9,13.6,1111122 
DISL,ioos:station:DISL:BSCA:1,2016-07-02T21:30:00Z,30.3288,-87.8293,1.855,13.59,1111122 
DISL,ioos:station:DISL:BSCA:1,2016-07-02T22:00:00Z,30.3288,-87.8293,1.826,12.94,1111122 
DISL,ioos:station:DISL:BSCA:1,2016-07-02T22:30:00Z,30.3288,-87.8293,1.802,12.76,1111122 
DISL,ioos:station:DISL:BSCA:1,2016-07-02T23:00:00Z,30.3288,-87.8293,1.79,13.09,1111122 
DISL,ioos:station:DISL:BSCA:1,2016-07-02T23:30:00Z,30.3288,-87.8293,1.779,13.55,1111122 
DISL,ioos:station:DISL:BSCA:1,2016-07-03T00:00:00Z,30.3288,-87.8293,1.761,13.46,1111122 
DISL,ioos:station:DISL:BSCA:1,2016-07-03T00:30:00Z,30.3288,-87.8293,1.745,13.29,1111122 
DISL,ioos:station:DISL:BSCA:1,2016-07-03T01:00:00Z,30.3288,-87.8293,1.729,12.83,1111122 
DISL,ioos:station:DISL:BSCA:1,2016-07-03T01:30:00Z,30.3288,-87.8293,1.711,13.8,1111122 
DISL,ioos:station:DISL:BSCA:1,2016-07-03T02:00:00Z,30.3288,-87.8293,1.707,13.8,1111122 
DISL,ioos:station:DISL:BSCA:1,2016-07-03T02:30:00Z,30.3288,-87.8293,1.695,13.76,1111122 
DISL,ioos:station:DISL:BSCA:1,2016-07-03T03:00:00Z,30.3288,-87.8293,1.702,13.75,1111122 
DISL,ioos:station:DISL:BSCA:1,2016-07-03T03:30:00Z,30.3288,-87.8293,1.713,13.72,1111122 
DISL,ioos:station:DISL:BSCA:1,2016-07-03T04:00:00Z,30.3288,-87.8293,1.744,13.58,1111122 
DISL,ioos:station:DISL:BSCA:1,2016-07-03T04:30:00Z,30.3288,-87.8293,1.776,12.93,1111122 
DISL,ioos:station:DISL:BSCA:1,2016-07-03T05:00:00Z,30.3288,-87.8293,1.819,12.99,1111122 
DISL,ioos:station:DISL:BSCA:1,2016-07-03T05:30:00Z,30.3288,-87.8293,1.852,13.72,1111122 
DISL,ioos:station:DISL:BSCA:1,2016-07-03T06:00:00Z,30.3288,-87.8293,1.891,13.71,1111122 
DISL,ioos:station:DISL:BSCA:1,2016-07-03T06:30:00Z,30.3288,-87.8293,1.918,13.75,1111122 
DISL,ioos:station:DISL:BSCA:1,2016-07-03T07:00:00Z,30.3288,-87.8293,1.942,13.75,1111122 
DISL,ioos:station:DISL:BSCA:1,2016-07-03T07:30:00Z,30.3288,-87.8293,1.971,13.75,1111122 
DISL,ioos:station:DISL:BSCA:1,2016-07-03T08:00:00Z,30.3288,-87.8293,1.992,13.76,1111122 
DISL,ioos:station:DISL:BSCA:1,2016-07-03T08:30:00Z,30.3288,-87.8293,2.01,13.76,1111122 
DISL,ioos:station:DISL:BSCA:1,2016-07-03T09:00:00Z,30.3288,-87.8293,2.03,13.77,1111122 
DISL,ioos:station:DISL:BSCA:1,2016-07-03T09:30:00Z,30.3288,-87.8293,2.077,13.78,1111122 
DISL,ioos:station:DISL:BSCA:1,2016-07-03T10:00:00Z,30.3288,-87.8293,2.093,13.79,1111122 
DISL,ioos:station:DISL:BSCA:1,2016-07-03T10:30:00Z,30.3288,-87.8293,2.13,13.78,1111122 
DISL,ioos:station:DISL:BSCA:1,2016-07-03T11:00:00Z,30.3288,-87.8293,2.155,13.78,1111122 
DISL,ioos:station:DISL:BSCA:1,2016-07-03T11:30:00Z,30.3288,-87.8293,2.181,13.77,1111122 
DISL,ioos:station:DISL:BSCA:1,2016-07-03T12:00:00Z,30.3288,-87.8293,2.228,13.77,1111122 
DISL,ioos:station:DISL:BSCA:1,2016-07-03T12:30:00Z,30.3288,-87.8293,2.248,13.76,1111122 
DISL,ioos:station:DISL:BSCA:1,2016-07-03T13:00:00Z,30.3288,-87.8293,2.276,13.77,1111122 
DISL,ioos:station:DISL:BSCA:1,2016-07-03T13:30:00Z,30.3288,-87.8293,2.295,13.76,1111122 
DISL,ioos:station:DISL:BSCA:1,2016-07-03T14:00:00Z,30.3288,-87.8293,2.296,13.76,1111122 
DISL,ioos:station:DISL:BSCA:1,2016-07-03T14:30:00Z,30.3288,-87.8293,2.298,13.77,1111122 
DISL,ioos:station:DISL:BSCA:1,2016-07-03T15:00:00Z,30.3288,-87.8293,2.294,13.76,1111122 
DISL,ioos:station:DISL:BSCA:1,2016-07-03T15:30:00Z,30.3288,-87.8293,2.287,13.73,1111122 
DISL,ioos:station:DISL:BSCA:1,2016-07-03T16:00:00Z,30.3288,-87.8293,2.274,13.7,1111122 
DISL,ioos:station:DISL:BSCA:1,2016-07-03T16:30:00Z,30.3288,-87.8293,2.25,13.66,1111122 
DISL,ioos:station:DISL:BSCA:1,2016-07-03T17:00:00Z,30.3288,-87.8293,2.235,13.14,1111122 
DISL,ioos:station:DISL:BSCA:1,2016-07-03T17:30:00Z,30.3288,-87.8293,2.217,13.76,1111122 
DISL,ioos:station:DISL:BSCA:1,2016-07-03T18:00:00Z,30.3288,-87.8293,2.188,13.78,1111122 
DISL,ioos:station:DISL:BSCA:1,2016-07-03T18:30:00Z,30.3288,-87.8293,2.148,13.77,1111122 
DISL,ioos:station:DISL:BSCA:1,2016-07-03T19:00:00Z,30.3288,-87.8293,2.111,13.78,1111122 
DISL,ioos:station:DISL:BSCA:1,2016-07-03T19:30:00Z,30.3288,-87.8293,2.061,13.66,1111122 
DISL,ioos:station:DISL:BSCA:1,2016-07-03T20:00:00Z,30.3288,-87.8293,2.015,13.74,1111122 
DISL,ioos:station:DISL:BSCA:1,2016-07-03T20:30:00Z,30.3288,-87.8293,1.979,13.72,1111122 
DISL,ioos:station:DISL:BSCA:1,2016-07-03T21:00:00Z,30.3288,-87.8293,1.924,13.72,1111122 
DISL,ioos:station:DISL:BSCA:1,2016-07-03T21:30:00Z,30.3288,-87.8293,1.901,13.64,1111122 
DISL,ioos:station:DISL:BSCA:1,2016-07-03T22:00:00Z,30.3288,-87.8293,1.86,13.57,1111122 
DISL,ioos:station:DISL:BSCA:1,2016-07-03T22:30:00Z,30.3288,-87.8293,1.832,13.6,1111122 
DISL,ioos:station:DISL:BSCA:1,2016-07-03T23:00:00Z,30.3288,-87.8293,1.811,13.52,1111122 
DISL,ioos:station:DISL:BSCA:1,2016-07-03T23:30:00Z,30.3288,-87.8293,1.767,13.55,1111122 
DISL,ioos:station:DISL:BSCA:1,2016-07-04T00:00:00Z,30.3288,-87.8293,1.77,13.49,1111122 
DISL,ioos:station:DISL:BSCA:1,2016-07-04T00:30:00Z,30.3288,-87.8293,1.742,13.46,1111122 
DISL,ioos:station:DISL:BSCA:1,2016-07-04T01:00:00Z,30.3288,-87.8293,1.712,13.5,1111122 
DISL,ioos:station:DISL:BSCA:1,2016-07-04T01:30:00Z,30.3288,-87.8293,1.709,13.48,1111122 
DISL,ioos:station:DISL:BSCA:1,2016-07-04T02:00:00Z,30.3288,-87.8293,1.691,13.52,1111122 
DISL,ioos:station:DISL:BSCA:1,2016-07-04T02:30:00Z,30.3288,-87.8293,1.676,13.49,1111122 
DISL,ioos:station:DISL:BSCA:1,2016-07-04T03:00:00Z,30.3288,-87.8293,1.669,13.46,1111122 
DISL,ioos:station:DISL:BSCA:1,2016-07-04T03:30:00Z,30.3288,-87.8293,1.657,13.5,1111122 
DISL,ioos:station:DISL:BSCA:1,2016-07-04T04:00:00Z,30.3288,-87.8293,1.668,13.48,1111122 
DISL,ioos:station:DISL:BSCA:1,2016-07-04T04:30:00Z,30.3288,-87.8293,1.705,13.54,1111122 
DISL,ioos:station:DISL:BSCA:1,2016-07-04T05:00:00Z,30.3288,-87.8293,1.733,12.92,1111122 
DISL,ioos:station:DISL:BSCA:1,2016-07-04T05:30:00Z,30.3288,-87.8293,1.77,13.25,1111122 
DISL,ioos:station:DISL:BSCA:1,2016-07-04T06:00:00Z,30.3288,-87.8293,1.826,12.89,1111122 
DISL,ioos:station:DISL:BSCA:1,2016-07-04T06:30:00Z,30.3288,-87.8293,1.899,13.75,1111122 
DISL,ioos:station:DISL:BSCA:1,2016-07-04T07:00:00Z,30.3288,-87.8293,1.897,13.68,1111122 
DISL,ioos:station:DISL:BSCA:1,2016-07-04T07:30:00Z,30.3288,-87.8293,1.861,12.89,1111122 
DISL,ioos:station:DISL:BSCA:1,2016-07-04T08:00:00Z,30.3288,-87.8293,1.927,12.89,1111122 
DISL,ioos:station:DISL:BSCA:1,2016-07-04T08:30:00Z,30.3288,-87.8293,1.994,13.05,1111122 
DISL,ioos:station:DISL:BSCA:1,2016-07-04T09:00:00Z,30.3288,-87.8293,1.97,12.91,1111122 
DISL,ioos:station:DISL:BSCA:1,2016-07-04T09:30:00Z,30.3288,-87.8293,2.062,12.85,1111122 
DISL,ioos:station:DISL:BSCA:1,2016-07-04T10:00:00Z,30.3288,-87.8293,2.041,13.42,1111122 
DISL,ioos:station:DISL:BSCA:1,2016-07-04T10:30:00Z,30.3288,-87.8293,2.069,13.49,1111122 
DISL,ioos:station:DISL:BSCA:1,2016-07-04T11:00:00Z,30.3288,-87.8293,2.151,13.26,1111122 
DISL,ioos:station:DISL:BSCA:1,2016-07-04T11:30:00Z,30.3288,-87.8293,2.136,13.45,1111122 
DISL,ioos:station:DISL:BSCA:1,2016-07-04T12:00:00Z,30.3288,-87.8293,2.164,13.91,1111122 
DISL,ioos:station:DISL:BSCA:1,2016-07-04T12:30:00Z,30.3288,-87.8293,2.211,13.64,1111122 
DISL,ioos:station:DISL:BSCA:1,2016-07-04T13:00:00Z,30.3288,-87.8293,2.209,13.69,1111122 
DISL,ioos:station:DISL:BSCA:1,2016-07-04T13:30:00Z,30.3288,-87.8293,2.245,13.54,1111122 
DISL,ioos:station:DISL:BSCA:1,2016-07-04T14:00:00Z,30.3288,-87.8293,2.261,13.77,1111122 
DISL,ioos:station:DISL:BSCA:1,2016-07-04T14:30:00Z,30.3288,-87.8293,2.268,13.8,1111122 
DISL,ioos:station:DISL:BSCA:1,2016-07-04T15:00:00Z,30.3288,-87.8293,2.29,13.91,1111122 
DISL,ioos:station:DISL:BSCA:1,2016-07-04T15:30:00Z,30.3288,-87.8293,2.278,13.98,1111122 
DISL,ioos:station:DISL:BSCA:1,2016-07-04T16:00:00Z,30.3288,-87.8293,2.297,14.03,1111122 
DISL,ioos:station:DISL:BSCA:1,2016-07-04T16:30:00Z,30.3288,-87.8293,2.291,14.03,1111122 
DISL,ioos:station:DISL:BSCA:1,2016-07-04T17:00:00Z,30.3288,-87.8293,2.295,14.03,1111122 
DISL,ioos:station:DISL:BSCA:1,2016-07-04T17:30:00Z,30.3288,-87.8293,2.274,14.02,1111122 
DISL,ioos:station:DISL:BSCA:1,2016-07-04T18:00:00Z,30.3288,-87.8293,2.265,14.02,1111122 
DISL,ioos:station:DISL:BSCA:1,2016-07-04T18:30:00Z,30.3288,-87.8293,2.234,14.02,1111122 
DISL,ioos:station:DISL:BSCA:1,2016-07-04T19:00:00Z,30.3288,-87.8293,2.199,14.01,1111122 
DISL,ioos:station:DISL:BSCA:1,2016-07-04T19:30:00Z,30.3288,-87.8293,2.174,13.99,1111122 
DISL,ioos:station:DISL:BSCA:1,2016-07-04T20:00:00Z,30.3288,-87.8293,2.126,13.95,1111122 
DISL,ioos:station:DISL:BSCA:1,2016-07-04T20:30:00Z,30.3288,-87.8293,2.078,13.87,1111122 
DISL,ioos:station:DISL:BSCA:1,2016-07-04T21:00:00Z,30.3288,-87.8293,2.032,13.89,1111122 
DISL,ioos:station:DISL:BSCA:1,2016-07-04T21:30:00Z,30.3288,-87.8293,1.976,13.68,1111122 
DISL,ioos:station:DISL:BSCA:1,2016-07-04T22:00:00Z,30.3288,-87.8293,1.963,12.92,1111122 
DISL,ioos:station:DISL:BSCA:1,2016-07-04T22:30:00Z,30.3288,-87.8293,1.918,13.16,1111122 
DISL,ioos:station:DISL:BSCA:1,2016-07-04T23:00:00Z,30.3288,-87.8293,1.901,13.05,1111122 
DISL,ioos:station:DISL:BSCA:1,2016-07-04T23:30:00Z,30.3288,-87.8293,1.863,13.29,1111122 
DISL,ioos:station:DISL:BSCA:1,2016-07-05T00:00:00Z,30.3288,-87.8293,1.828,13.28,1111122 
DISL,ioos:station:DISL:BSCA:1,2016-07-05T00:30:00Z,30.3288,-87.8293,1.797,12.87,1111122 
DISL,ioos:station:DISL:BSCA:1,2016-07-05T01:00:00Z,30.3288,-87.8293,1.747,12.83,1111122 
DISL,ioos:station:DISL:BSCA:1,2016-07-05T01:30:00Z,30.3288,-87.8293,1.713,12.9,1111122 
DISL,ioos:station:DISL:BSCA:1,2016-07-05T02:00:00Z,30.3288,-87.8293,1.599,12.78,1111122 
DISL,ioos:station:DISL:BSCA:1,2016-07-05T02:30:00Z,30.3288,-87.8293,1.628,12.66,1111122 
DISL,ioos:station:DISL:BSCA:1,2016-07-05T03:00:00Z,30.3288,-87.8293,1.688,12.51,1111122 
DISL,ioos:station:DISL:BSCA:1,2016-07-05T03:30:00Z,30.3288,-87.8293,1.703,12.45,1111122 
DISL,ioos:station:DISL:BSCA:1,2016-07-05T04:00:00Z,30.3288,-87.8293,1.685,12.44,1111122 
DISL,ioos:station:DISL:BSCA:1,2016-07-05T04:30:00Z,30.3288,-87.8293,1.736,12.46,1111122 
DISL,ioos:station:DISL:BSCA:1,2016-07-05T05:00:00Z,30.3288,-87.8293,1.745,12.31,1111122 
DISL,ioos:station:DISL:BSCA:1,2016-07-05T05:30:00Z,30.3288,-87.8293,1.771,12.31,1111122 
DISL,ioos:station:DISL:BSCA:1,2016-07-05T06:00:00Z,30.3288,-87.8293,1.772,12.26,1111122 
DISL,ioos:station:DISL:BSCA:1,2016-07-05T06:30:00Z,30.3288,-87.8293,1.778,12.32,1111122 
DISL,ioos:station:DISL:BSCA:1,2016-07-05T07:00:00Z,30.3288,-87.8293,1.797,12.34,1111122 
DISL,ioos:station:DISL:BSCA:1,2016-07-05T07:30:00Z,30.3288,-87.8293,1.806,12.27,1111122 
DISL,ioos:station:DISL:BSCA:1,2016-07-05T08:00:00Z,30.3288,-87.8293,1.847,12.46,1111122 
DISL,ioos:station:DISL:BSCA:1,2016-07-05T08:30:00Z,30.3288,-87.8293,1.876,12.51,1111122 
DISL,ioos:station:DISL:BSCA:1,2016-07-05T09:00:00Z,30.3288,-87.8293,1.922,12.48,1111122 
DISL,ioos:station:DISL:BSCA:1,2016-07-05T09:30:00Z,30.3288,-87.8293,1.946,12.61,1111122 
DISL,ioos:station:DISL:BSCA:1,2016-07-05T10:00:00Z,30.3288,-87.8293,1.958,12.62,1111122 
DISL,ioos:station:DISL:BSCA:1,2016-07-05T10:30:00Z,30.3288,-87.8293,1.972,12.57,1111122 
DISL,ioos:station:DISL:BSCA:1,2016-07-05T11:00:00Z,30.3288,-87.8293,1.994,12.59,1111122 
DISL,ioos:station:DISL:BSCA:1,2016-07-05T11:30:00Z,30.3288,-87.8293,2.013,12.49,1111122 
DISL,ioos:station:DISL:BSCA:1,2016-07-05T12:00:00Z,30.3288,-87.8293,2.049,12.43,1111122 
DISL,ioos:station:DISL:BSCA:1,2016-07-05T12:30:00Z,30.3288,-87.8293,2.081,13.18,1111122 
DISL,ioos:station:DISL:BSCA:1,2016-07-05T13:00:00Z,30.3288,-87.8293,2.131,13.06,1111122 
DISL,ioos:station:DISL:BSCA:1,2016-07-05T13:30:00Z,30.3288,-87.8293,2.198,12.93,1111122 
DISL,ioos:station:DISL:BSCA:1,2016-07-05T14:00:00Z,30.3288,-87.8293,2.198,12.91,1111122 
DISL,ioos:station:DISL:BSCA:1,2016-07-05T14:30:00Z,30.3288,-87.8293,2.229,13.01,1111122 
DISL,ioos:station:DISL:BSCA:1,2016-07-05T15:00:00Z,30.3288,-87.8293,2.244,13.03,1111122 
DISL,ioos:station:DISL:BSCA:1,2016-07-05T15:30:00Z,30.3288,-87.8293,2.206,13.02,1111122 
DISL,ioos:station:DISL:BSCA:1,2016-07-05T16:00:00Z,30.3288,-87.8293,2.265,12.97,1111122 
DISL,ioos:station:DISL:BSCA:1,2016-07-05T16:30:00Z,30.3288,-87.8293,2.27,12.96,1111122 
DISL,ioos:station:DISL:BSCA:1,2016-07-05T17:00:00Z,30.3288,-87.8293,2.279,13.1,1111122 
DISL,ioos:station:DISL:BSCA:1,2016-07-05T17:30:00Z,30.3288,-87.8293,2.272,13.1,1111122 
DISL,ioos:station:DISL:BSCA:1,2016-07-05T18:00:00Z,30.3288,-87.8293,2.26,13.14,1111122 
DISL,ioos:station:DISL:BSCA:1,2016-07-05T18:30:00Z,30.3288,-87.8293,2.223,13.11,1111122 
DISL,ioos:station:DISL:BSCA:1,2016-07-05T19:00:00Z,30.3288,-87.8293,2.178,13.08,1111122 
DISL,ioos:station:DISL:BSCA:1,2016-07-05T19:30:00Z,30.3288,-87.8293,2.169,13.01,1111122 
DISL,ioos:station:DISL:BSCA:1,2016-07-05T20:00:00Z,30.3288,-87.8293,2.132,13.07,1111122 
DISL,ioos:station:DISL:BSCA:1,2016-07-05T20:30:00Z,30.3288,-87.8293,2.101,13.05,1111122 
DISL,ioos:station:DISL:BSCA:1,2016-07-05T21:00:00Z,30.3288,-87.8293,2.064,12.37,1111122 
DISL,ioos:station:DISL:BSCA:1,2016-07-05T21:30:00Z,30.3288,-87.8293,2.025,12.68,1111122 
DISL,ioos:station:DISL:BSCA:1,2016-07-05T22:00:00Z,30.3288,-87.8293,1.967,13.05,1111122 
DISL,ioos:station:DISL:BSCA:1,2016-07-05T22:30:00Z,30.3288,-87.8293,1.924,13.05,1111122 
DISL,ioos:station:DISL:BSCA:1,2016-07-05T23:00:00Z,30.3288,-87.8293,1.884,13.07,1111122 
DISL,ioos:station:DISL:BSCA:1,2016-07-05T23:30:00Z,30.3288,-87.8293,1.866,13.06,1111122 
DISL,ioos:station:DISL:BSCA:1,2016-07-06T00:00:00Z,30.3288,-87.8293,1.816,13.02,1111122 
DISL,ioos:station:DISL:BSCA:1,2016-07-06T00:30:00Z,30.3288,-87.8293,1.798,13.01,1111122 
DISL,ioos:station:DISL:BSCA:1,2016-07-06T01:00:00Z,30.3288,-87.8293,1.752,13.0,1111122 
DISL,ioos:station:DISL:BSCA:1,2016-07-06T01:30:00Z,30.3288,-87.8293,1.726,13.01,1111122 
DISL,ioos:station:DISL:BSCA:1,2016-07-06T02:00:00Z,30.3288,-87.8293,1.701,13.0,1111122 
DISL,ioos:station:DISL:BSCA:1,2016-07-06T02:30:00Z,30.3288,-87.8293,1.679,12.95,1111122 
DISL,ioos:station:DISL:BSCA:1,2016-07-06T03:00:00Z,30.3288,-87.8293,1.671,12.95,1111122 
DISL,ioos:station:DISL:BSCA:1,2016-07-06T03:30:00Z,30.3288,-87.8293,1.645,12.96,1111122 
DISL,ioos:station:DISL:BSCA:1,2016-07-06T04:00:00Z,30.3288,-87.8293,1.645,12.9,1111122 
DISL,ioos:station:DISL:BSCA:1,2016-07-06T04:30:00Z,30.3288,-87.8293,1.688,12.75,1111122 
DISL,ioos:station:DISL:BSCA:1,2016-07-06T05:00:00Z,30.3288,-87.8293,1.71,12.55,1111122 
DISL,ioos:station:DISL:BSCA:1,2016-07-06T05:30:00Z,30.3288,-87.8293,1.747,12.59,1111122 
DISL,ioos:station:DISL:BSCA:1,2016-07-06T06:00:00Z,30.3288,-87.8293,1.754,12.0,1111122 
DISL,ioos:station:DISL:BSCA:1,2016-07-06T06:30:00Z,30.3288,-87.8293,1.764,11.96,1111122 
DISL,ioos:station:DISL:BSCA:1,2016-07-06T07:00:00Z,30.3288,-87.8293,1.777,11.92,1111122 
DISL,ioos:station:DISL:BSCA:1,2016-07-06T07:30:00Z,30.3288,-87.8293,1.782,12.01,1111122 
DISL,ioos:station:DISL:BSCA:1,2016-07-06T08:00:00Z,30.3288,-87.8293,1.806,12.66,1111122 
DISL,ioos:station:DISL:BSCA:1,2016-07-06T08:30:00Z,30.3288,-87.8293,1.845,12.69,1111122 
DISL,ioos:station:DISL:BSCA:1,2016-07-06T09:00:00Z,30.3288,-87.8293,1.877,12.78,1111122 
DISL,ioos:station:DISL:BSCA:1,2016-07-06T09:30:00Z,30.3288,-87.8293,1.897,12.87,1111122 
DISL,ioos:station:DISL:BSCA:1,2016-07-06T10:00:00Z,30.3288,-87.8293,1.919,12.72,1111122 
DISL,ioos:station:DISL:BSCA:1,2016-07-06T10:30:00Z,30.3288,-87.8293,1.92,12.81,1111122 
DISL,ioos:station:DISL:BSCA:1,2016-07-06T11:00:00Z,30.3288,-87.8293,1.93,12.71,1111122 
DISL,ioos:station:DISL:BSCA:1,2016-07-06T11:30:00Z,30.3288,-87.8293,1.946,12.69,1111122 
DISL,ioos:station:DISL:BSCA:1,2016-07-06T12:00:00Z,30.3288,-87.8293,1.975,12.66,1111122 
DISL,ioos:station:DISL:BSCA:1,2016-07-06T12:30:00Z,30.3288,-87.8293,2.007,12.63,1111122 
DISL,ioos:station:DISL:BSCA:1,2016-07-06T13:00:00Z,30.3288,-87.8293,2.041,12.59,1111122 
DISL,ioos:station:DISL:BSCA:1,2016-07-06T13:30:00Z,30.3288,-87.8293,2.076,12.76,1111122 
DISL,ioos:station:DISL:BSCA:1,2016-07-06T14:00:00Z,30.3288,-87.8293,2.115,12.91,1111122 